User: anonymous   Login
Location: Unspecified
(0.0000°N, 0.0000°E)
Time: 03:21:10
(UTC+00:00)
Language:

Tiangong 1 - Orbit

View from above orbital plane
View from above orbital plane
View from above satellite
View from above satellite

Ground track
Ground track

The orbit data is extracted from the following two-line orbital elements,

1 37820U 11053A   17086.75295479 +.00023062 +00000-0 +15321-3 0  9998
2 37820 042.7611 337.2691 0018611 225.8408 238.5858 15.74732383315113
Epoch (UTC): 27 March 2017 18:04:15
Eccentricity: 0.0018611
inclination: 42.7611°
perigee height: 333 km
apogee height: 358 km
right ascension of ascending node: 337.2691°
argument of perigee: 225.8408°
revolutions per day: 15.74732383
mean anomaly at epoch: 238.5858°
orbit number at epoch: 31511

The dashed part of the orbit path shows where the satellite is in the earth's shadow,  

DLR